#timestamp,LO_Frequency,Hit,StdDev 
1456707615.6,286046996.7,P
1456707635.4,286046996.1,P
1456707655.2,286046998.2,N
1456707675.1,286046999.0,N
1456707676.0,286046999.0,N
1456707695.8,286046998.2,N
1456707715.6,286047002.1,N
1456707735.5,286047001.9,N
1456707755.3,286046998.3,N
1456707775.1,286046995.6,N
1456707795.9,286046993.9,Y
1456707815.7,286046995.6,P
1456707835.5,286046994.4,P
1456707855.4,286046994.0,P
1456707875.2,286046994.7,Y
1456707895.0,286046999.5,P
1456707895.9,286046999.5,N
1456707915.8,286047000.4,N
1456707935.6,286047002.5,N
1456707955.4,286046999.0,N
1456707975.3,286046998.8,N
1456707995.1,286047000.4,N
1456707996.0,286047000.4,N
1456708015.8,286047000.7,N
1456708035.7,286047001.0,N
1456708055.5,286046998.9,N
1456708075.3,286046996.7,N
1456708095.2,286046997.3,N
1456708115.9,286046999.6,N
1456708135.7,286046998.9,N
1456708155.5,286047002.5,N
1456708175.4,286046999.8,N
1456708195.2,286046999.7,N
1456708215.0,286046999.8,N
1456708215.9,286046999.8,N
1456708235.8,286047005.5,Y
1456708255.6,286047006.0,P
1456708275.4,286047006.4,N
1456708295.3,286047006.7,N
1456708315.1,286047008.0,N
1456708316.0,286047008.0,N
1456708335.8,286047005.5,N
1456708355.7,286047008.5,Y
1456708375.5,286047003.2,P
1456708395.3,286047003.0,N
1456708415.2,286047004.9,P
1456708435.9,286047005.2,Y
1456708455.7,286046998.5,P
1456708475.6,286046999.5,N
1456708495.4,286046999.6,N
1456708515.2,286046996.6,N
1456708535.1,286046998.7,N
1456708536.0,286046998.7,N
1456708555.8,286047004.0,N
1456708575.6,286046999.7,N
1456708595.5,286047002.2,N
1456708615.3,286047000.9,N
1456708635.1,286047000.1,N
1456708655.8,286047003.0,N
1456708675.7,286047004.1,N
1456708695.5,286047001.8,N
1456708715.3,286047001.3,N
1456708735.2,286047002.6,N
1456708755.9,286047002.3,N
1456708775.7,286047000.0,N
1456708795.6,286046998.2,N
1456708815.4,286047000.3,N
1456708835.2,286047004.1,N
1456708855.1,286047007.4,Y
1456708856.0,286047007.4,P
1456708875.8,286047007.4,N
1456708895.6,286047005.4,N
1456708915.5,286047004.9,N
1456708935.3,286047003.3,N
1456708955.1,286047004.3,N
1456708975.9,286047001.8,N
1456708995.7,286047000.3,N
1456709015.5,286047003.6,N
1456709035.3,286047004.4,N
1456709055.2,286047007.6,Y
1456709075.0,286047001.9,P
1456709075.9,286047001.9,N
1456709095.7,286046998.9,N
1456709115.6,286047000.8,N
1456709135.4,286047003.0,N
1456709155.2,286047003.9,N
1456709175.1,286047005.4,Y
1456709176.0,286047005.4,P
1456709195.8,286047003.9,N
1456709215.6,286047003.9,N
1456709235.5,286047002.7,N
1456709255.3,286046995.1,Y
1456709275.1,286046990.4,P
1456709295.9,286046991.3,N
1456709315.7,286046987.3,N
1456709335.5,286046988.4,N
1456709355.4,286046986.2,N
1456709375.2,286046986.4,N
1456709395.0,286046990.0,N
1456709395.9,286046990.0,N
1456709415.8,286046988.1,N
1456709435.6,286046987.7,N
1456709455.4,286046987.9,N
1456709475.3,286046989.3,N
1456709495.1,286046989.1,N
1456709496.0,286046989.1,N
1456709515.8,286046988.0,Y
1456709535.7,286046997.5,P
1456709555.5,286046999.0,N
1456709575.3,286046999.3,N
1456709595.2,286046999.6,N
1456709615.9,286046996.5,N
1456709635.7,286046995.3,N
1456709655.6,286046997.4,N
1456709675.4,286046997.6,N
1456709695.2,286046997.1,N
1456709715.0,286046997.7,N
1456709716.0,286046997.7,N
1456709735.8,286046994.9,N
1456709755.6,286046996.2,N
1456709775.4,286046996.2,N
1456709795.3,286046995.9,N
1456709815.1,286046994.4,N
1456709835.8,286046997.6,N
1456709855.7,286046996.4,N
1456709875.5,286046996.0,N
1456709895.3,286046993.9,N
1456709915.2,286046995.1,N
1456709935.9,286046997.2,N
1456709955.7,286046997.0,N
1456709975.6,286046996.1,N
1456709995.4,286047000.8,N
1456710015.2,286046998.7,N
1456710035.0,286046995.6,N
1456710035.9,286046995.6,N
1456710055.8,286046996.0,N
1456710075.6,286046996.0,N
1456710095.4,286046996.2,N
1456710115.3,286046995.5,N
1456710135.1,286046999.0,N
1456710155.8,286046998.6,N
1456710175.7,286046999.3,N
1456710195.5,286046998.0,N
1456710215.3,286046993.7,Y
1456710235.2,286046996.6,P
1456710255.9,286046998.2,P
1456710275.7,286047000.9,N
1456710295.6,286046997.4,N
1456710315.4,286046999.5,N
1456710335.2,286046997.9,N
1456710355.1,286046996.6,N
1456710356.0,286046996.6,N
1456710375.8,286046999.6,N
1456710395.6,286046998.6,N
1456710415.4,286047000.5,N
1456710435.3,286047000.4,N
1456710455.1,286047001.2,N
1456710475.8,286046997.2,N
1456710495.7,286046997.5,N
1456710515.5,286046993.4,Y
1456710535.3,286047000.8,P
1456710555.2,286046998.7,N
1456710575.0,286046996.5,P
1456710575.9,286046996.5,N
1456710595.7,286046997.7,N
1456710615.6,286046998.4,N
1456710635.4,286046997.5,N
1456710655.2,286046995.6,Y
1456710675.1,286047000.2,P
1456710676.0,286047000.2,N
1456710695.8,286046998.5,N
1456710715.6,286046999.1,N
1456710735.5,286046997.0,Y
1456710755.3,286046998.9,P
1456710775.1,286047000.7,P
1456710795.9,286047000.6,N
1456710815.7,286046998.5,N
1456710835.5,286046999.8,N
1456710855.4,286046999.9,N
1456710875.2,286047002.7,Y
1456710895.0,286047001.0,P
1456710895.9,286047001.0,N
1456710915.8,286047000.3,N
1456710935.6,286047000.6,N
1456710955.4,286047002.8,Y
1456710975.3,286047003.7,P
1456710995.1,286047005.5,P
1456710996.0,286047005.5,N
1456711015.8,286047005.8,N
1456711035.7,286047001.3,N
1456711055.5,286047004.3,N
1456711075.3,286047007.4,Y
1456711095.2,286047003.9,P
1456711115.9,286047004.1,P
1456711135.7,286047003.3,P
1456711155.6,286047005.7,Y
1456711175.4,286047002.7,P
1456711195.2,286047000.4,N
